Skip Page Navigation
NASA JPL Caltech
NASA Logo - Jet Propulsion Laboratory + View the NASA Portal
+ Center for Near-Earth Object Studies
JPL Home Earth Solar System Stars & Galaxies Technology
JPL Solar System Dynamics
BODIES ORBITS EPHEMERIDES TOOLS PHYSICAL DATA DISCOVERY FAQ SITE MAP
JPL Small-Body Database Browser
Search: [ help ]  
120052 (2003 BD67)
Classification: Main-belt Asteroid          SPK-ID: 2120052
Ephemeris | Orbit Diagram | Orbital Elements | Mission Design | Physical Parameters | Discovery Circumstances | Close-Approach Data ]

[ show orbit diagram ]
Orbital Elements at Epoch 2459000.5 (2020-May-31.0) TDB
Reference: JPL 17 (heliocentric ecliptic J2000)
 Element Value Uncertainty (1-sigma)   Units 
e .1264659170631364 4.6321e-08  
a 2.474037048363165 1.1262e-08 au
q 2.161155684193742 1.1045e-07 au
i 1.374591756610354 4.3272e-06 deg
node 344.0424575846199 0.00014889 deg
peri 182.0183792825309 0.00014972 deg
M 143.2492095574069 1.7781e-05 deg
tp 2458434.915552609509
(2018-Nov-12.41555261)
6.792e-05 TDB
period 1421.371899291216
3.89
9.7053e-06
2.657e-08
d
yr
n .2532764297503829 1.7294e-09 deg/d
Q 2.786918412532588 1.2686e-08 au
  Orbit Determination Parameters
   # obs. used (total)      712  
   data-arc span      8005 days (21.92 yr)  
   first obs. used      1998-12-11  
   last obs. used      2020-11-10  
   planetary ephem.      DE431  
   SB-pert. ephem.      SB431-N16  
   condition code      0  
   norm. resid. RMS      .55248  
   source      ORB  
   producer      Otto Matic  
   solution date      2020-Dec-18 04:39:56  

Additional Information
 Earth MOID = 1.16821 au 
 Jupiter MOID = 2.18559 au 
 T_jup = 3.471 
[ show covariance matrix ]

Ephemeris | Orbit Diagram | Orbital Elements | Mission Design | Physical Parameters | Discovery Circumstances | Close-Approach Data ]

Physical Parameter Table
Parameter Symbol Value Units Sigma Reference Notes
absolute magnitude H 16.28   n/a E2021B55  

120052 (2003 BD67)          Discovered 2003-Jan-30 by NEAT at Haleakala
Reference: 20051116/Numbers.arcLast Updated: 2005-11-21

[ show close-approach data ]
Alternate Designations
 2003 BD67 = 1998 XC97 = 2001 TN207 = 2001 TT228 
Ephemeris | Orbit Diagram | Orbital Elements | Mission Design | Physical Parameters | Discovery Circumstances | Close-Approach Data ]
ABOUT SSD CREDITS/AWARDS PRIVACY/COPYRIGHT GLOSSARY LINKS
FirstGov 2021-Mar-01 17:58 UT
(server date/time)  
NASA Home Page
Site Manager:   Ryan S. Park
Webmaster  Alan B. Chamberlin